HORIZONS-2

Last updated on Jan. 5, 2019, 2:57 a.m. UTC

1 32388U 07063B   19004.80253963 -.00000182  00000-0  00000+0 0  9991
2 32388   0.0176   5.8995 0002625 296.2087 175.7477  1.00272265 40608
UTC
Height (km)
Latitude
Longitude
Inclination
Orbital Period
UTC large
Height (km)
Speed (km/s)
/
Latitude / Longitude
Inclination (degrees)
Orbital Period (minutes)
Azimuth
Elevation
Range (km)
Doppler Factor
iOS Compass Heading
iOS Angle

Next 30 passes for location: Hong Kong

Rise time Rise Azimuth (degrees) Set time Set Azimuth (degrees) Duration Max altitude (degrees)

No matching passes for this satellites